TimeEST,TemperatureF,Dew PointF,Humidity,Sea Level PressureIn,VisibilityMPH,Wind Direction,Wind SpeedMPH,Gust SpeedMPH,PrecipitationIn,Events,Conditions,WindDirDegrees,DateUTC
12:53 AM,25.0,17.1,72,30.33,10.0,SSW,3.5,-,N/A,,Clear,200,2012-12-31 05:53:00
1:53 AM,24.1,17.1,75,30.33,10.0,South,3.5,-,N/A,,Clear,190,2012-12-31 06:53:00
2:53 AM,26.1,17.1,69,30.33,10.0,SW,5.8,-,N/A,,Clear,220,2012-12-31 07:53:00
3:53 AM,24.1,17.1,75,30.32,10.0,South,3.5,-,N/A,,Clear,190,2012-12-31 08:53:00
4:53 AM,26.1,17.1,69,30.30,10.0,SSW,4.6,-,N/A,,Clear,200,2012-12-31 09:53:00
5:53 AM,24.1,17.1,75,30.30,10.0,Calm,Calm,-,N/A,,Clear,0,2012-12-31 10:53:00
6:53 AM,21.9,16.0,78,30.27,10.0,South,5.8,-,N/A,,Clear,170,2012-12-31 11:53:00
7:53 AM,25.0,18.0,75,30.30,10.0,SSE,4.6,-,N/A,,Clear,160,2012-12-31 12:53:00
9:53 AM,27.0,18.0,69,30.27,10.0,SSE,5.8,-,N/A,,Clear,150,2012-12-31 14:53:00
10:53 AM,28.9,18.0,64,30.26,10.0,SSE,5.8,-,N/A,,Clear,150,2012-12-31 15:53:00
11:53 AM,30.9,19.0,61,30.21,10.0,SSE,3.5,-,N/A,,Clear,150,2012-12-31 16:53:00
12:53 PM,32.0,21.0,64,30.17,10.0,South,6.9,-,N/A,,Clear,170,2012-12-31 17:53:00
1:53 PM,34.0,21.0,59,30.13,10.0,SSW,8.1,-,N/A,,Clear,200,2012-12-31 18:53:00
2:53 PM,35.1,21.9,59,30.11,10.0,South,10.4,-,N/A,,Overcast,190,2012-12-31 19:53:00
3:53 PM,34.0,21.9,61,30.09,10.0,South,8.1,-,N/A,,Overcast,170,2012-12-31 20:53:00
4:53 PM,35.1,21.9,59,30.09,10.0,South,10.4,-,N/A,,Mostly Cloudy,190,2012-12-31 21:53:00
5:53 PM,36.0,21.9,57,30.09,10.0,SSW,6.9,-,N/A,,Overcast,200,2012-12-31 22:53:00
6:53 PM,37.9,25.0,60,30.08,10.0,WSW,8.1,-,N/A,,Overcast,240,2012-12-31 23:53:00
7:53 PM,39.0,27.0,62,30.05,10.0,SW,5.8,-,N/A,,Clear,230,2013-01-01 00:53:00
8:53 PM,39.0,27.0,62,30.04,10.0,SW,8.1,-,N/A,,Overcast,230,2013-01-01 01:53:00
9:53 PM,39.9,27.0,60,30.02,10.0,WSW,11.5,-,N/A,,Overcast,240,2013-01-01 02:53:00
10:53 PM,39.9,27.0,60,30.02,10.0,WSW,10.4,18.4,N/A,,Overcast,240,2013-01-01 03:53:00
11:53 PM,39.9,28.0,63,30.01,10.0,West,9.2,19.6,N/A,,Overcast,260,2013-01-01 04:53:00